Weather in Chaykino

Russia / Bryansk Oblast     52°32′08″N   33°13′14″E
temp.,
°C
wind,
m/s
gust,
m/s
humid.,
%
clouds,
%
prec.,
mm/h
press.,
hPa
HPBL,
m
13 april, tue
tue1300:00+11e228998 0.0 102016
03:00+10se348993 0.0 102154
06:00+9se3690100 0.0 1021103
09:00+12se4778100 0.0 1021298
12:00+15s4770100 0.0 1021801
15:00+16s466481 0.2 10201061
18:00+14ssw2279100 0.5 101831
21:00+12e118388 0.6 101822
14 april, wed
wed1400:00+11sse358562 0.0 1018144
03:00+10sse379571 0.2 1018230
06:00+9sse3692100 0.0 1018221
09:00+10sse4788100 0.0 1018419
12:00+13sse4570100 0.1 10171027
15:00+15sse4557100 0.4 10161313
18:00+13s2369100 0.3 101595
21:00+11se2278100 0.4 101618
15 april, thu
thu1500:00+10se2386100 0.1 101556
03:00+10e2391100 0.4 1014100
06:00+10ene2289100 0.7 101455
09:00+10ese3690100 0.9 1014341
12:00+13s356752 0.3 1013999
15:00+14se346179 1.1 10121061
18:00+14ese3568100 1.4 1012463
21:00+10ssw3684100 2.4 1013172
16 april, fri
fri1600:00+10e368897 0.1 1012174
03:00+9ese3890100 0.3 1012327
06:00+8e3594100 0.3 1012171
09:00+10ese4883100 0.9 1013529
12:00+14se585891 0.9 10121677
15:00+14se6852100 1.2 10131801
18:00+11sse476611 0.1 1014505
21:00+8s357638 0.1 1016190
17 april, sat
sat1700:00+6e33835 0.0 101739
03:00+5ese37880 0.0 1018138
06:00+4sse229017 0.0 101921
09:00+8ese1269100 0.0 1020312
12:00+10ne2263100 0.2 10201006
15:00+6ssw2394100 10.2 1020161
18:00+7wsw2394100 4.4 1020137
21:00+7n2292100 4.5 102071